Location: Arbon
(43.0005°N, 0.7472°E)
Time: 00:42:00
(UTC+00:00)

Cosmos 1937 Rocket - Pass Details

Date: 07 August 2020
Orbit: 747 x 780 km, 74.0° (Epoch: 19 September)

Event Time Altitude Azimuth Distance (km) Brightness Sun altitude
Exits shadow 03:47:05 16° 238° (WSW) 1,961 4.9 -11.6°
Maximum altitude 03:50:50 36° 298° (WNW) 1,225 4.3 -11.0°
Drops below altitude 10° 03:55:43 10° 5° (N) 2,342 6.6 -10.3°
Sets 03:58:19 0° 14° (NNE) 3,272 7.6 -9.9°
